TimeCAT,TemperatureF,Dew PointF,Humidity,Sea Level PressureIn,VisibilityMPH,Wind Direction,Wind SpeedMPH,Gust SpeedMPH,PrecipitationIn,Events,Conditions,WindDirDegrees,DateUTC
12:00 AM,68.0,64.4,88,30.04,6.2,NNW,11.5,-,N/A,,Mostly Cloudy,330,2013-01-20 22:00:00
1:00 AM,68.0,64.4,88,30.01,-9999.0,NW,11.5,-,N/A,,Clear,310,2013-01-20 23:00:00
2:00 AM,67,64,88,,19,NW,10.4,,,,Partly Cloudy,320,2013-01-21 00:00:00
2:00 AM,68.0,64.4,88,30.01,6.2,NW,10.4,-,N/A,,Mostly Cloudy,320,2013-01-21 00:00:00
5:00 AM,66.2,64.4,94,30.01,6.2,NW,10.4,-,N/A,,Mostly Cloudy,310,2013-01-21 03:00:00
6:00 AM,66.2,66.2,100,30.01,6.2,NW,9.2,-,N/A,,Mostly Cloudy,310,2013-01-21 04:00:00
7:00 AM,68.0,66.2,94,30.04,6.2,WNW,10.4,-,N/A,,Mostly Cloudy,290,2013-01-21 05:00:00
8:00 AM,69,65,83,,19,West,12.7,,,,Mostly Cloudy,280,2013-01-21 06:00:00
8:00 AM,69.8,64.4,83,30.04,6.2,West,12.7,-,N/A,,Mostly Cloudy,280,2013-01-21 06:00:00
10:00 AM,73.4,64.4,73,30.04,6.2,WNW,16.1,-,N/A,,Mostly Cloudy,290,2013-01-21 08:00:00
11:00 AM,75.2,64.4,69,30.04,6.2,WNW,13.8,-,N/A,,Mostly Cloudy,300,2013-01-21 09:00:00
12:00 PM,75.2,68.0,78,30.01,6.2,West,15.0,-,N/A,,Mostly Cloudy,260,2013-01-21 10:00:00
1:00 PM,75.2,68.0,78,30.01,6.2,SW,11.5,-,N/A,,Mostly Cloudy,230,2013-01-21 11:00:00
2:00 PM,79,64,50,,19,West,19.6,,,Rain,Light Rain Showers,260,2013-01-21 12:00:00
2:00 PM,78.8,64.4,61,29.98,6.2,West,19.6,-,N/A,,Mostly Cloudy,260,2013-01-21 12:00:00
3:00 PM,78.8,66.2,65,29.98,6.2,WSW,12.7,-,N/A,,Mostly Cloudy,250,2013-01-21 13:00:00
4:00 PM,77.0,66.2,69,29.98,6.2,WNW,12.7,-,N/A,,Mostly Cloudy,300,2013-01-21 14:00:00
5:00 PM,78.8,64.4,61,29.95,6.2,West,16.1,-,N/A,,Mostly Cloudy,280,2013-01-21 15:00:00
6:00 PM,77.0,62.6,61,29.98,6.2,West,11.5,-,N/A,,Mostly Cloudy,280,2013-01-21 16:00:00
7:00 PM,71.6,64.4,78,30.01,6.2,WSW,3.5,-,N/A,,Mostly Cloudy,250,2013-01-21 17:00:00
8:00 PM,69,63,76,,19,South,4.6,,,,Scattered Clouds,170,2013-01-21 18:00:00
8:00 PM,68.0,62.6,83,30.04,6.2,South,4.6,-,N/A,,Mostly Cloudy,170,2013-01-21 18:00:00
9:00 PM,66.2,64.4,94,30.09,6.2,North,5.8,-,N/A,Rain,Light Rain,350,2013-01-21 19:00:00
11:00 PM,66.2,66.2,100,30.09,6.2,Variable,2.3,-,N/A,,Mostly Cloudy,0,2013-01-21 21:00:00